User: anonymous   Login
Location: Unspecified
(0.0000°N, 0.0000°E)
Time: 04:55:53
(UTC+01:00)
Language:

Cosmos 1703 Rocket - Orbit

View from above orbital plane
View from above orbital plane
View from above satellite
View from above satellite

Ground track
Ground track

The orbit data is extracted from the following two-line orbital elements,

1 16263U 85108B   17326.54166497 +.00000092 +00000-0 +83149-5 0  9992
2 16263 082.5019 325.7610 0019972 182.3152 295.8164 14.83011487706778
Epoch (UTC): 22 November 2017 12:59:59
Eccentricity: 0.0019972
inclination: 82.5019°
perigee height: 606 km
apogee height: 634 km
right ascension of ascending node: 325.7610°
argument of perigee: 182.3152°
revolutions per day: 14.83011487
mean anomaly at epoch: 295.8164°
orbit number at epoch: 70677

The dashed part of the orbit path shows where the satellite is in the earth's shadow,  

DLR